KE0DYO Weather Reports


Display with metric or nautical units.
time (UTC)temp
F
wind
direction
speed
MPH
gust
MPH
rain 1hr
in
rain 24hr
in
rain mn
in
humidity
%
barometer
mb
20260502123038 42 360 1.0 3.0 0.00 0.00 0.00 79 1023.8
20260502121549 41 360 1.0 2.0 0.00 0.00 0.00 80 1023.7
20260502114529 40 360 1.0 3.0 0.00 0.00 0.00 80 1023.3
20260502113036 40 360 1.0 2.0 0.00 0.00 0.00 80 1023.1
20260502111555 40 360 1.0 2.0 0.00 0.00 0.00 80 1023.0
20260502110009 40 360 1.0 2.0 0.00 0.00 0.00 79 1022.9
20260502104522 41 360 1.0 2.0 0.00 0.00 0.00 78 1022.9
20260502103029 42 360 1.0 3.0 0.00 0.00 0.00 77 1022.8
20260502101606 42 360 2.0 3.0 0.00 0.00 0.00 76 1022.7
20260502071516 46 360 1.0 3.0 0.00 0.00 0.00 63 1021.9
20260502070029 46 360 1.0 5.0 0.00 0.00 0.00 63 1021.9
20260502064610 47 360 2.0 3.0 0.00 0.00 0.00 61 1022.0
20260502063125 47 360 2.0 3.0 0.00 0.00 0.00 61 1022.0
20260502061510 48 360 1.0 3.0 0.00 0.00 0.00 60 1022.0
20260502060040 48 360 2.0 4.0 0.00 0.00 0.00 60 1022.0
20260502054540 48 360 2.0 3.0 0.00 0.00 0.00 58 1022.0
20260502053057 49 360 2.0 4.0 0.00 0.00 0.00 57 1021.9
20260502051509 49 360 2.0 4.0 0.00 0.00 0.00 56 1021.9
20260502050023 50 360 1.0 4.0 0.00 0.00 0.00 55 1021.9
20260502044526 50 360 2.0 4.0 0.00 0.00 0.00 54 1021.8
20260502043105 51 360 2.0 3.0 0.00 0.00 0.00 53 1021.8
20260502041602 52 360 2.0 5.0 0.00 0.00 0.00 50 1021.7
20260502040022 52 360 2.0 4.0 0.00 0.00 0.00 51 1021.5
20260502034528 52 360 2.0 7.0 0.00 0.00 0.00 51 1021.5
20260502033043 52 360 2.0 5.0 0.00 0.00 0.00 53 1021.4
20260502031556 53 360 1.0 3.0 0.00 0.00 0.00 53 1021.4
20260502030014 53 360 1.0 3.0 0.00 0.00 0.00 53 1021.1
20260502024526 54 360 1.0 3.0 0.00 0.00 0.00 51 1021.0
20260502023042 55 360 1.0 3.0 0.00 0.00 0.00 51 1020.7
20260502021554 55 360 1.0 4.0 0.00 0.00 0.00 49 1020.5
20260502020014 56 360 1.0 3.0 0.00 0.00 0.00 49 1020.3
20260502014524 56 360 1.0 6.0 0.00 0.00 0.00 48 1020.0
20260502013034 57 360 2.0 4.0 0.00 0.00 0.00 48 1019.8
20260502011544 57 360 2.0 5.0 0.00 0.00 0.00 46 1019.6
20260502010015 58 360 2.0 5.0 0.00 0.00 0.00 45 1019.4
20260502004525 59 360 2.0 6.0 0.00 0.00 0.00 44 1019.2
20260502003031 60 360 2.0 5.0 0.00 0.00 0.00 42 1019.0
20260502001548 60 360 4.0 11.0 0.00 0.00 0.00 40 1018.9
20260502000004 61 360 4.0 8.0 0.00 0.00 0.00 39 1018.7
20260501234516 61 360 6.0 16.0 0.00 0.00 0.00 38 1018.5
20260501233026 62 360 3.0 8.0 0.00 0.00 0.00 38 1018.5
20260501231548 62 360 4.0 10.0 0.00 0.00 0.00 37 1018.6
20260501230002 62 360 3.0 10.0 0.00 0.00 0.00 39 1018.6
20260501224532 62 360 5.0 10.0 0.00 0.00 0.00 36 1018.7
20260501223044 62 360 3.0 10.0 0.00 0.00 0.00 39 1018.6
20260501221502 63 360 3.0 17.0 0.00 0.00 0.00 38 1018.7
20260501220024 63 360 2.0 8.0 0.00 0.00 0.00 39 1018.8
20260501214548 63 360 4.0 10.0 0.00 0.00 0.00 38 1018.7
20260501213109 63 360 2.0 7.0 0.00 0.00 0.00 43 1018.9
20260501213002 63 360 3.0 7.0 0.00 0.00 0.00 42 1019.0
20260501211520 62 360 1.0 5.0 0.00 0.00 0.00 47 1019.4
20260501210040 63 360 3.0 9.0 0.00 0.00 0.00 43 1019.4
20260501204609 62 360 4.0 11.0 0.00 0.00 0.00 41 1019.6
20260501203018 63 360 3.0 8.0 0.00 0.00 0.00 44 1019.8
20260501201536 62 360 2.0 9.0 0.00 0.00 0.00 43 1020.0
20260501200047 63 360 3.0 7.0 0.00 0.00 0.00 44 1020.1
20260501194502 61 360 1.0 7.0 0.00 0.00 0.00 42 1020.5
20260501193018 62 360 1.0 4.0 0.00 0.00 0.00 42 1020.5
20260501191534 62 360 2.0 7.0 0.00 0.00 0.00 41 1020.5
20260501190048 62 360 1.0 7.0 0.00 0.00 0.00 41 1020.6
20260501184504 62 360 2.0 7.0 0.00 0.00 0.00 46 1020.7
20260501183023 61 360 2.0 5.0 0.00 0.00 0.00 44 1020.9
20260501181532 61 360 1.0 6.0 0.00 0.00 0.00 45 1021.0
20260501180051 60 360 1.0 5.0 0.00 0.00 0.00 43 1021.0
20260501174501 61 360 1.0 8.0 0.00 0.00 0.00 47 1021.2
20260501173016 60 360 1.0 6.0 0.00 0.00 0.00 48 1021.3
20260501171551 60 360 2.0 8.0 0.00 0.00 0.00 48 1021.5
20260501170055 59 360 2.0 5.0 0.00 0.00 0.00 46 1021.5
20260501164513 59 360 3.0 5.0 0.00 0.00 0.00 45 1021.6
20260501163029 58 360 2.0 5.0 0.00 0.00 0.00 48 1021.5
20260501161542 58 360 1.0 5.0 0.00 0.00 0.00 49 1021.6
20260501154517 57 360 1.0 4.0 0.00 0.00 0.00 55 1021.6
20260501153034 56 360 0.0 4.0 0.00 0.00 0.00 54 1021.5
20260501151544 55 360 0.0 3.0 0.00 0.00 0.00 51 1021.4
20260501150054 54 360 1.0 5.0 0.00 0.00 0.00 53 1021.3